www.pogodaiklimat.ru

Погода и климат >> Архив погоды >> Ирак >> Basrah Airport


ПОГОДА в Basrah Airport

  • Прогноз погоды в Basrah Airport
  • Монитор погоды в Basrah Airport
  • Климат города

АРХИВ ПОГОДЫ в Basrah Airport

Время (UTC), дата Ветер
(напр.,м/с)
 
Видим.   Явления Облачность Т
(С)
Тd
(С)
f
(%)
Тe
(С)
Тes
(С)
Комфортность P
(гПа)
Po
(гПа)
Тmin
(С)
Tmax
(С)
R
(мм)
R24
(мм)
S
(см)
18 11.12 СЗ 3 10 км ясно +15.5 +10.5 72 +15 +15 1022.1 1022.0 +23.3
21 11.12 З 4 10 км ясно +12.5 +8.9 79 +11 +11 1022.1 1022.0
00 12.12 З 4 5000 м дымка ясно +11.2 +7.9 80 +9 +9 1022.2 1022.0
03 12.12 ЮЗ 3 6000 м дымка ясно +9.7 +6.6 81 +7 +7 1022.5 1023.0
06 12.12 СЗ 2 6000 м мгла ясно +14.0 +9.5 74 +14 +17 1023.4 1023.0 +9.5
09 12.12 СЗ 5 10 км ясно +21.2 +8.8 45 +22 +27 комфорт 1022.1 1022.0
12 12.12 СЗ 4 10 км ясно +22.6 +8.2 40 +24 +25 комфорт 1020.7 1021.0
15 12.12 С 3 10 км ясно +18.9 +8.4 50 +20 +20 1021.0 1021.0
18 12.12 штиль 0 10 км ясно +15.0 +9.6 70 +15 +15 1021.4 1021.0 +23.1
00 13.12 штиль 0 10 км ясно +12.2 +8.0 75 +12 +12 1021.2 1021.0
03 13.12 штиль 0 10 км ясно +10.3 +6.7 78 +10 +10 1021.9 1022.0
06 13.12 штиль 0 8000 м мгла ясно +14.6 +8.9 69 +14 +19 1024.0 1024.0 +10.2
09 13.12 штиль 0 10 км ясно +22.0 +8.8 43 +23 +34 комфорт 1022.7 1023.0
12 13.12 СВ 4 10 км ясно +23.7 +9.5 41 +25 +26 комфорт 1020.9 1021.0
15 13.12 штиль 0 10 км ясно +20.0 +10.7 55 +21 +21 комфорт 1022.1 1022.0
18 13.12 ЮВ 2 10 км ясно +16.5 +10.6 68 +17 +17 1022.9 1023.0 +23.8
21 13.12 СЗ 2 10 км ясно +15.1 +9.8 71 +15 +15 1023.0 1023.0
00 14.12 З 4 10 км ясно +14.2 +9.9 75 +13 +13 1023.8 1024.0
03 14.12 СВ 3 8000 м мгла ясно +14.3 +10.4 77 +13 +13 1024.2 1024.0
06 14.12 З 3 6000 м мгла 4/3 1200 м
[Cu hum Ac trans Ci fib]
+16.8 +11.8 72 +17 +18 1025.6 1026.0 +13.6
09 14.12 З 4 7000 м мгла ясно +22.1 +13.3 57 +25 +30 комфорт 1024.2 1024.0
12 14.12 СЗ 6 10 км 4/4 1000 м
[Cu Sc Ac lent]
+23.6 +11.7 47 +25 +26 комфорт 1023.5 1024.0
15 14.12 СЗ 4 10 км 3/0
[Ac trans]
+19.5 +11.1 58 +21 +21 комфорт 1024.6 1025.0
18 14.12 З 4 10 км 3/0
[Ac trans]
+16.7 +11.3 70 +16 +16 1025.2 1025.0 +24.0
21 14.12 З 4 10 км ясно +15.0 +10.8 76 +14 +14 1024.7 1025.0
00 15.12 З 4 8000 м мгла ясно +13.5 +9.6 77 +12 +12 1024.5 1025.0
03 15.12 З 4 8000 м мгла ясно +11.2 +6.7 74 +9 +9 1025.2 1025.0
06 15.12 З 8 10 км ясно +14.0 +6.7 61 +12 +12 1026.5 1027.0 +10.3
12 15.12 З 8 10 км ясно +21.6 +1.1 26 +21 +22 комфорт 1023.3 1023.0
15 15.12 З 5 10 км ясно +16.4 +5.4 48 +16 +16 1024.5 1025.0
18 15.12 З 3 10 км ясно +12.5 +6.9 69 +11 +11 1025.5 1026.0 +21.8
21 15.12 З 2 10 км ясно +10.4 +5.4 71 +9 +9 1025.5 1026.0
00 16.12 З 3 10 км ясно +9.4 +4.9 73 +7 +7 1025.5 1026.0
06 16.12 З 3 8000 м мгла 1/0
[Ci fib]
+11.4 +6.5 72 +10 +12 1027.1 1027.0 +7.7
09 16.12 З 3 10 км ясно +17.3 +6.7 50 +17 +24 1026.1 1026.0
12 16.12 СЗ 3 10 км 1/0
[Ci fib]
+19.8 +6.2 41 +21 +23 комфорт 1024.5 1025.0
15 16.12 З 2 10 км 1/0
[Ci fib]
+17.0 +7.5 54 +17 +17 1025.3 1025.0
18 16.12 З 2 10 км 1/0
[Ci fib]
+13.9 +7.7 66 +13 +13 1025.6 1026.0 +20.1
00 17.12 штиль 0 10 км ясно +10.0 +5.9 76 +9 +9 1023.8 1024.0
06 17.12 В 3 3000 м мгла 1/0
[Ac trans]
+14.2 +10.4 78 +13 +16 1023.6 1024.0 +9.5
09 17.12 ЮВ 3 8000 м мгла 3/0
[Ac trans]
+21.0 +8.1 43 +23 +28 комфорт 1021.8 1022.0
12 17.12 ЮВ 6 8000 м мгла 8/0
[Ac trans Ci fib]
+23.9 +9.7 41 +25 +25 комфорт 1019.2 1019.0
15 17.12 ЮВ 5 10 км 8/4 900 м
[Cu hum Ac trans]
+20.1 +13.5 66 +22 +22 комфорт 1019.7 1020.0
18 17.12 В 5 10 км 8/0
[Ac trans Cs]
+18.7 +13.5 72 +19 +19 1019.8 1020.0 +23.9
21 17.12 ЮВ 6 10 км 9/3 1050 м
[Cu hum As trans]
+18.9 +14.3 75 +20 +20 1019.6 1020.0
00 18.12 С 4 5000 м в посл. час дождь 10/3 1050 м
[Cu med, cong As op]
+16.7 +15.5 93 +16 +16 1021.4 1021.0
06 18.12 В 4 5000 м дымка {дождь} 10/6 1200 м
[Sc Ac As]
+16.5 +15.1 91 +16 +16 1023.6 1024.0 +15.3
12 18.12 Ю 2 5000 м мгла 9/9 900 м
[Cu Sc Ac trans]
+20.4 +15.0 71 +24 +24 комфорт 1022.3 1022.0
15 18.12 З 6 4000 м дымка 5/5 750 м
[St]
+15.2 +13.3 88 +14 +14 1023.5 1024.0

 

Местоположение метеостанции Basrah Airport (Ирак): широта 30.52 долгота 47.78 высота над уровнем моря 3 м.

В архиве по умолчанию представлена погода в Basrah Airport за последнюю неделю. Архивные данные за месяц целиком и за предыдущие месяцы, начиная с января 2011 года, Вы можете получить, выбрав интересующий диапазон дат из раскрывающегося списка и нажав кнопку "Ввод!".


*Определитесь, кто Вы:
робот инопланетянин человек

Внимание! Время в таблицах - всемирное. Для получения местного времени необходимо прибавить поправку, которая в Basrah Airport равна 3 ч.

Смотрите также архив погоды в соседних городах и на ближайших метеорологических станциях:

Погода в Basrah (Ирак) (6 км)
Погода в Abadan (Иран) (48 км)
Погода в Abdaly (Кувейт) (50 км)
Погода в Sabriyah (Кувейт) (86 км)
Погода в Mitribah (Кувейт) (87 км)
Погода в Fao (Ирак) (92 км)
Погода в Bubiyan (Кувейт) (101 км)
Погода в Jal Aliyah (Кувейт) (103 км)
Погода в Ahwaz (Иран) (124 км)
Погода в Failaka Island (Кувейт) (126 км)

Пояснения к столбцам:

Ветер - указаны скорость ветра в м/с - средняя за 10 мин, порывы в срок и между сроками (в фигурных скобках) и направление, откуда дует ветер: С - северный, СВ - северо-восточный, В - восточный, ЮВ - юго-восточный, Ю - южный, ЮЗ - юго-западный, З - западный, СЗ - северо-западный.
Видимость - горизонтальная дальность видимости в метрах или километрах. При видимости от 1 до 10 км при отсутствии осадков обычно наблюдается дымка, при ухудшении видимости до 1 км и менее - туман. В сухую погоду видимость может ухудшаться дымом, пылью или мглою.
Явления - указаны атмосферные явления, наблюдавшиеся в срок или в последний час перед сроком; фигурными скобками обозначены явления, наблюдавшиеся между сроками (за 1-3 часа до срока); квадратными скобками обозначены град или гололедные отложения с указанием их диаметра в мм.
Облачность - указаны через наклонную черту общая и нижняя облачность в баллах и высота нижней границы облаков в метрах; квадратными скобками обозначены формы облаков: Ci - перистые, Cs - перисто-слоистые, Cc - перисто-кучевые, Ac - высококучевые, As - высокослоистые, Sc - слоисто-кучевые, Ns - слоисто-дождевые, Cu - кучевые, Cb - кучево-дождевые. Подробнее классификацию облаков см. в Атласе облаков (PDF).
T - Температура воздуха - температура, измеренная на высоте 2 м над землей.
Td - Температура точки росы - температура, при понижении до которой содержащийся в воздухе водяной пар достигнет насыщения.
f - Относительная влажность воздуха - влажноcть воздуха, измеренная на высоте 2 м над землей.
Te - Эффективная температура - температура, которую ощущает одетый по сезону человек в тени. Характеристика душности погоды. При расчете учитывается влияние влажности воздуха и скорости ветра на теплоощущения человека.
Tes - Эффективная температура на солнце - температура, которую ощущает человек, с поправкой на солнечный нагрев. Характеристика знойности погоды. Зависит от высоты солнца над горизонтом, облачности и скорости ветра. Ночью, в пасмурную погоду, а также при ветре 12 м/с и более поправка равна нулю.
P - Атмосферное давление - приведенное к уровню моря атмосферное давление.
Po - Атмосферное давление - измеренное на уровне метеостанции атмосферное давление.
Tmin - Минимальная температура - минимум температуры воздуха на высоте 2 м над землей.
Tmax - Максимальная температура - максимум температуры воздуха на высоте 2 м над землей.
R - Количество осадков - Количество выпавших осадков за период времени, мм. При наведении курсора мыши на число - период времени, за который выпало указанное количество осадков.
R24 - Количество осадков - Количество выпавших осадков за 24 часа, мм.
S - Снежный покров - Высота снежного покрова, см. При наведении курсора мыши на число - состояние снежного покрова и степень покрытия местности в баллах.